Regional Weather Roundup
Issued by NWS Little Rock, AR

Home | Current Version | Previous Version | Graphics & Text | Print | Product List | Glossary On
Versions: 1 2 3 4 5 6 7 8 9 10 11 12 13 14 15 16 17 18 19 20 21 22 23 24 25 26 27 28 29 30 31 32
000
ASUS44 KLZK 170405
RWRLZK

WEATHER ROUNDUP FOR ARKANSAS
NATIONAL WEATHER SERVICE LITTLE ROCK AR
1000 PM CST MON JAN 16 2017

NOTE: "FAIR" INDICATES FEW OR NO CLOUDS BELOW 12,000 FEET WITH NO
SIGNIFICANT WEATHER AND/OR OBSTRUCTIONS TO VISIBILITY.

ARZ001-003-010-029-170500-
NORTHWEST ARKANSAS

CITY           SKY/WX    TMP DP  RH WIND       PRES   REMARKS
FAYETTEVILLE   CLEAR     42  39  89 W5        30.02R
FORT SMITH     CLEAR     45  40  82 W8        30.04R
HARRISON       PTCLDY    46  40  79 W7G20     29.99R
BENTONVILLE    CLEAR    N/A N/A N/A W6        30.01S
ROGERS         CLEAR     41  37  86 W7        30.01R
SILOAM SPGS    CLEAR     39  34  81 W6        30.01S
HIGHFILL       CLEAR     40  36  86 W5        30.01R
$$

ARZ004-005-016-170500-
NORTH CENTRAL ARKANSAS

CITY           SKY/WX    TMP DP  RH WIND       PRES   REMARKS
BATESVILLE     MOCLDY    61  57  88 SW7       29.96S
FLIPPIN        CLEAR     54  43  66 W10       29.94R
MTN HOME       CLEAR     51  46  83 VRB3      29.95R
$$

ARZ040-041-170500-
WEST CENTRAL ARKANSAS

CITY           SKY/WX    TMP DP  RH WIND       PRES   REMARKS
MENA           CLEAR     52  50  93 CALM      30.03S
MOUNT IDA      CLEAR     53  48  83 CALM      29.99S
$$

ARZ009-017-025-026-028-170500-
NORTHEAST ARKANSAS

CITY           SKY/WX    TMP DP  RH WIND       PRES   REMARKS
CORNING        FAIR      61  61 100 S14       29.93F
JONESBORO      CLOUDY    64  62  93 SW13      29.94F
NEWPORT        PTCLDY    62  61  96 SW5       29.95R
WALNUT RIDGE   CLEAR     61  57  88 S12       29.93F
BLYTHEVILLE    HVY RAIN  64  62  93 W12       29.96R FOG
$$

ARZ022-023-033-042-044-170500-
CENTRAL ARKANSAS

CITY           SKY/WX    TMP DP  RH WIND       PRES   REMARKS
LITTLE ROCK    LGT RAIN  59  58  96 SW12      30.00R
N LITTLE ROCK    N/A     60  58  94 W6        30.01R
JACKSONVILLE   PTCLDY    62  60  94 SW8       29.99R
SEARCY         CLOUDY    63  61  93 SW6       29.99R
HOT SPRINGS    CLOUDY    58  58 100 CALM      30.01S
RUSSELLVILLE   CLEAR     53  45  74 W16G24    30.00R
CLINTON        FAIR      52  52 100 VRB5      29.97R FOG
$$

ARZ036-170500-
EAST ARKANSAS

CITY           SKY/WX    TMP DP  RH WIND       PRES   REMARKS
WEST MEMPHIS   CLOUDY    67  62  84 S26G36    29.95R
$$

ARZ050-053-066-070-073-170500-
SOUTHWEST ARKANSAS

CITY           SKY/WX    TMP DP  RH WIND       PRES   REMARKS
ARKADELPHIA    LGT RAIN  58  56  93 CALM      30.02S
CAMDEN         LGT RAIN  57  55  94 W9        30.04R
TEXARKANA      CLOUDY    59  55  87 NW5       30.04R
EL DORADO      LGT RAIN  60  60 100 W13       30.05R
DE QUEEN       PTCLDY    51  46  83 NW3       30.03S
$$

ARZ056-057-069-170500-
SOUTHEAST ARKANSAS

CITY           SKY/WX    TMP DP  RH WIND       PRES   REMARKS
PINE BLUFF     RAIN      66  65  96 CALM      29.97F FOG
STUTTGART      CLOUDY    64  61  88 SW16      30.01R
MONTICELLO     CLOUDY    67  64  90 S5        30.01F

$$






USA.gov is the U.S. government's official web portal to all federal, state and local government web resources and services.